Regional Weather Roundup
Issued by NWS

Current Version | Previous Version | Text Only | Print | Product List | Glossary On
Versions: 1 2 3 4 5 6 7 8 9 10 11 12 13 14 15 16 17 18 19 20 21 22 23 24 25 26 27 28 29 30 31 32 33 34 35 36 37 38 39 40 41 42 43 44 45 46 47 48 49 50
654
ASUS42 KTBW 180217
RWRFL
FLORIDA REGIONAL WEATHER ROUNDUP
NATIONAL WEATHER SERVICE TAMPA BAY RUSKIN FL
900 PM EST WED JAN 17 2018

NOTE: "FAIR" INDICATES FEW OR NO CLOUDS BELOW 12,000 FEET WITH NO
SIGNIFICANT WEATHER AND/OR OBSTRUCTIONS TO VISIBILITY.

FLZ001>010-012>015-112-114-115-180300-
PANHANDLE FLORIDA

CITY           SKY/WX    TMP DP  RH WIND       PRES   REMARKS
PENSACOLA      FAIR      28  12  51 N14G20    30.54R WCI  17
PENSACOLA NAS  FAIR      28  10  46 N10G22    30.54S WCI  19
MILTON NAS     FAIR      25  11  55 VRB6      30.54R WCI  18
CRESTVIEW      FAIR      26  11  52 N8        30.55R WCI  18
DUKE FIELD     CLEAR     26  11  52 N14       30.51R WCI  14
VALPARAISO     CLEAR     27  10  48 N9        30.52R WCI  18
MARY ESTHER    FAIR      27  12  52 N13       30.52R WCI  16
PANAMA CITY    FAIR      28  11  48 NW12G22   30.49R WCI  18
TYNDALL AFB    FAIR      29   9  43 N9        30.49R WCI  20
APALACHICOLA   FAIR      30   9  41 N10       30.46R WCI  21

STATION/POSITION SKY/WX   TEMP    WIND        PRES    WAVE   SWELL
                          AIR SEA DIR/SP/G            HT/PER HT/PER
                          (F)     (DEG/KT/KT) (MB)    (FT/S) (FT/S)
29.2N   88.2W              42 68   20/ 21/ 27 1033.6
28.8N   86.0W              45 69  360/ 21/ 29 1030.5R   6/ 7
PANAMA CITY BEAC           29 54  350/ 10/ 19 1033.2R
TOWER C                    35      10/ 26/ 28 1030.6R

$$
FLZ011-016>038-118-127-128-134-139-239-180300-
NORTH FLORIDA

CITY           SKY/WX    TMP DP  RH WIND       PRES   REMARKS
MARIANNA       FAIR      27  11  51 NW8       30.49R WCI  19
TALLAHASSEE    FAIR      29  10  45 N13       30.45R WCI  19
PERRY          FAIR      31  10  40 N12       30.43R WCI  22
LIVE OAK       CLEAR     30  12  47 NW10      30.41R WCI  21
CROSS CITY     FAIR      33  14  45 NW13      30.44R WCI  24
LAKE CITY      FAIR      32  14  47 NW8       30.37R WCI  25
GAINESVILLE    FAIR      34  19  54 NW8       30.37R WCI  27
WILLISTON        N/A     39  25  56 NW9       30.36R WCI  33
PALATKA        FAIR      37  25  60 NW9       30.34R WCI  31
MAYPORT NAS    FAIR      37  22  54 NW14G24   30.33R WCI  28
JACKSONVILLE   FAIR      36  17  46 NW15G24   30.34R WCI  27
JAX NAS        FAIR      38  17  42 NW18G25   30.34R WCI  28
JAX CECIL      CLEAR     36  19  51 NW9       30.34R WCI  29
FERNANDINA BEA FAIR      36  16  44 NW15G22   30.32R WCI  26
ST AUGUSTINE   FAIR      38  22  52 NW15      30.33R WCI  29
PALM COAST     FAIR      40  28  61 NW12      30.32R WCI  33

STATION/POSITION SKY/WX   TEMP    WIND        PRES    WAVE   SWELL
                          AIR SEA DIR/SP/G            HT/PER HT/PER
                          (F)     (DEG/KT/KT) (MB)    (FT/S) (FT/S)
SHELL POINT                33     330/ 10/ 14 1029.3
KEATON BEACH               31     340/  6/ 12 1029.5R
CEDAR KEY                  38     350/  8/ 10 1028.5R
FERNANDINA                 38 49  290/ 13/ 19 1028.1R
30.7N   81.3W                 50                N/A     4/11   2/11
MAYPORT                    38 49  310/ 14/ 23 1027.1R
31.4N   80.9W              39 52  290/ 23/ 29 1025.1R   5/ 5   2/11
ST AUGUSTINE               40 50  310/ 10/ 13 1026.9R

$$
FLZ040-043>046-052-053-057-058-063-144-180300-
INTERIOR CENTRAL FLORIDA

CITY           SKY/WX    TMP DP  RH WIND       PRES   REMARKS
OCALA          FAIR      39  25  57 NW10      30.35R WCI  32
LEESBURG       FAIR      45  32  60 NW12G21   30.32R WCI  39
SANFORD        FAIR      47  34  60 NW16      30.29R WCI  40
ORLANDO EXEC   FAIR      49  43  80 W13       30.28R WCI  44
ORLANDO INTL   MOCLDY    48  42  80 NW17      30.28R WCI  42
KISSIMMEE      FAIR      47  40  76 NW14G20   30.29R WCI  41
WINTER HAVEN   FAIR      44  35  70 NW14      30.31R WCI  37
LAKELAND       CLEAR     43  34  70 NW15      30.32R WCI  35
BARTOW         FAIR      45  32  61 NW12G21   30.31R WCI  39
SEBRING        FAIR      51  28  40 NW16G22   30.27R
OKEECHOBEE     FAIR      52  43  71 NW10      30.26R

$$
FLZ041-047-054-059-064-141-147-180300-
EAST CENTRAL FLORIDA

CITY           SKY/WX    TMP DP  RH WIND       PRES   REMARKS
DAYTONA BEACH  FAIR      45  34  65 NW15G24   30.29R WCI  38
DELAND         FAIR      45  28  53 NW17G25   30.30R WCI  37
NEW SMYRNA BEA MOCLDY    46  36  66 W16G26    30.29R WCI  40
JFK SPACE CTR  FAIR      51  46  84 NW14G20   30.24R
TITUSVILLE     CLEAR     55  43  62 NW14      30.24S
CAPE CANAVERAL FAIR      53  43  69 NW16G23   30.23R
PATRICK AFB    FAIR      55  44  68 NW16      30.24R
MELBOURNE      MOCLDY    56  44  64 NW17G24   30.24R
VERO BEACH     FAIR      56  48  74 W8        30.23R
FT PIERCE      FAIR      56  50  80 NW10      30.23R

STATION/POSITION SKY/WX   TEMP    WIND        PRES    WAVE   SWELL
                          AIR SEA DIR/SP/G            HT/PER HT/PER
                          (F)     (DEG/KT/KT) (MB)    (FT/S) (FT/S)
28.5N   80.2W              58 73  310/ 23/ 29 1023.4R   7/11   3/11
TRIDENT PIER               54 62  300/ 15/ 21 1025.6R
28.4N   80.5W                 61                N/A     3/12   2/12
27.5N   80.2W                 65                N/A     4/12   3/12

$$
FLZ050-056-061-142-242-148-248-149-249-151-251-155-255-
160-260-180300-
WEST CENTRAL FLORIDA

CITY           SKY/WX    TMP DP  RH WIND       PRES   REMARKS
CRYSTAL RIVER  FAIR      39  28  65 N6        30.36R WCI  35
INVERNESS      FAIR      41  30  65 N8        30.35R WCI  36
BROOKSVILLE    FAIR      42  32  67 NW13      30.34R WCI  35
CLEARWATER AIR FAIR      43  32  65 NW17G23   30.33S WCI  35
ST PETE CLEARW FAIR      45  34  65 NW16      30.33R WCI  38
TAMPA INTL     FAIR      46  32  58 NW9       30.33R WCI  41
TAMPA EXEC     FAIR      43  34  70 NW8       30.34R WCI  38
PLANT CITY     FAIR      45  34  65 NW7       30.34R WCI  41
MACDILL AFB    CLEAR     45  34  65 N10G21    30.33R WCI  39
PETER O KNIGHT FAIR      43  34  70 N7        30.33S WCI  39
ST PETERSBURG  FAIR      47  34  60 N18       30.31R WCI  40
SARASOTA       FAIR      47  38  71 N10       30.31R WCI  42
VENICE           N/A     50  41  71 NW12      30.31S

STATION/POSITION SKY/WX   TEMP    WIND        PRES    WAVE   SWELL
                          AIR SEA DIR/SP/G            HT/PER HT/PER
                          (F)     (DEG/KT/KT) (MB)    (FT/S) (FT/S)
27.3N   84.2W                 70                N/A     9/ 8
CLEARWATER BEACH           47 56  330/ 22/ 27 1027.1R
MIDDLE TAMPA BAY           47     360/ 15/ 19 1027.0R
VENICE                     51 60  340/ 22/ 24 1026.2R

$$
FLZ066-069-070-075>078-162-262-165-265-180300-
SOUTHWEST FLORIDA AND KEYS

CITY           SKY/WX    TMP DP  RH WIND       PRES   REMARKS
PUNTA GORDA    FAIR      50  42  74 N15G23    30.30R WCI  45
FT MYERS       MOCLDY    53  47  79 NW14      30.28R
SOUTHWEST INTL FAIR      52  48  86 N9        30.28R
NAPLES         CLOUDY    55  49  80 N13G22    30.28R
MARCO ISLAND   MOCLDY    56  50  80 NW12      30.28R
IMMOKALEE      FAIR      54  46  76 NW12      30.28R
MARATHON       FAIR      65  55  70 N15G24    30.22R
KEY WEST NAS   CLOUDY    63  62  97 N23G29    30.24R
KEY WEST INTL  FAIR      64  59  83 N20G30    30.25R

STATION/POSITION SKY/WX   TEMP    WIND        PRES    WAVE   SWELL
                          AIR SEA DIR/SP/G            HT/PER HT/PER
                          (F)     (DEG/KT/KT) (MB)    (FT/S) (FT/S)
NAPLES                        63  340/ 24/ 28 1024.8R
DRY TORTUGAS               65      10/ 24/ 26 1024.8R
SAND KEY                   65                 1024.3R
MOLASSES REEF              65 74  340/ 15/ 17 1023.0R

$$
FLZ067-068-071>074-168-172>174-180300-
SOUTHEAST FLORIDA

CITY           SKY/WX    TMP DP  RH WIND       PRES   REMARKS
W PALM BEACH   FAIR      65  49  56 NW15      30.21R
FT LAUDER-EXEC FAIR      63  50  62 NW9       30.21R
FT LAUDERDALE  CLOUDY    62  50  64 NW6       30.20R
POMPANO BEACH  FAIR      65  51  60 NW12      30.20R
PEMBROKE PINES   N/A    N/A N/A N/A MISG      30.22R
OPA LOCKA      FAIR      63  51  65 NW8       30.21R
MIAMI          MOCLDY    66  50  56 W7        30.21R
WEST KENDALL   FAIR      60  53  77 NW10      30.21R
HOMESTEAD      FAIR      62  56  81 NW6       30.20R

STATION/POSITION SKY/WX   TEMP    WIND        PRES    WAVE   SWELL
                          AIR SEA DIR/SP/G            HT/PER HT/PER
                          (F)     (DEG/KT/KT) (MB)    (FT/S) (FT/S)
PORT EVERGLADES            67     320/  8/ 11 1022.5
VIRGINIA KEY               68 71  320/  6/ 10 1022.1S
LAKE WORTH                 65 72  310/ 13/ 16 1023.6R
FOWEY ROCKS                68 73  340/ 15/ 16 1023.2R
SETTLEMENT POINT           71     330/ 14/ 17 1021.6S

$$





USA.gov is the U.S. government's official web portal to all federal, state and local government web resources and services.